Watsonville, CA

12:40 PM PST on December 06, 2019 (GMT -0800)
Watsonville Municipal

Weather History for KWVI - November, 2019

Change the Weather History Date:

Tuesday, November 19, 2019

  Actual Average Record
Temperature  
Mean Temperature 57 °F 54 °F  
Max Temperature 67 °F 65 °F 84 °F (2005)
Min Temperature 47 °F 43 °F 34 °F (2009)
Degree Days  
Heating Degree Days 8    
Month to date heating degree days 106  
Since 1 July heating degree days 302  
Cooling Degree Days 0    
Month to date cooling degree days 0  
Year to date cooling degree days 270  
Growing Degree Days 7 (Base 50)    
Moisture  
Dew Point 48 °F    
Average Humidity 74    
Maximum Humidity 100    
Minimum Humidity 48    
Precipitation  
Precipitation 0.00 in - 1.85 in (1950)
Month to date precipitation 0.00  
Year to date precipitation 22.88  
Sea Level Pressure  
Sea Level Pressure 29.75 in    
Wind  
Wind Speed 6 mph (NW)    
Max Wind Speed 17 mph    
Max Gust Speed 26 mph    
Visibility 7 miles    
Events Fog    
T = Trace of Precipitation, MM = Missing Value Source: NWS Daily Summary

Daily Weather History Graph

Daily Weather History Graph

Search for Another Location

Airport or City:

Astronomy

Nov. 19, 2019 Rise Set
Actual Time 6:49 AM PST 4:55 PM PST
Civil Twilight 6:21 AM PST 5:23 PM PST
Nautical Twilight 5:50 AM PST 5:54 PM PST
Astronomical Twilight 5:19 AM PST 6:25 PM PST
Moon 11:55 PM PST (11/19) 1:04 PM PST (11/19)
Length of Visible Light 11h 01m
Length of Day
10h 05m
Waning Gibbous, 50% of the Moon is Illuminated
Nov 19
Waning Gibbous
Nov 19
Last Quarter
Nov 26
New
Dec 3
First Quarter
Dec 11
Full

Hourly Weather History & Observations

Time (PST) Temp. Dew Point Humidity Pressure Visibility Wind Dir Wind Speed Gust Speed Precip Events Conditions
12:53 AM 48.9 °F 46.0 °F 90% 29.83 in 10.0 mi North 3.5 mph - N/A   Clear
1:49 AM 48.2 °F 44.6 °F 87% 29.84 in 10.0 mi Calm Calm - N/A   Scattered Clouds
1:53 AM 50.0 °F 45.0 °F 83% 29.84 in 10.0 mi Calm Calm - N/A   Mostly Cloudy
2:01 AM 51.1 °F 46.9 °F 86% 29.84 in 10.0 mi Calm Calm - N/A   Mostly Cloudy
2:08 AM 51.1 °F 48.0 °F 89% 29.84 in 1.8 mi Calm Calm - N/A   Overcast
2:12 AM 50.0 °F 48.0 °F 93% 29.84 in 0.8 mi Calm Calm - N/A   Mist
2:24 AM 48.9 °F 46.9 °F 93% 29.83 in 0.2 mi Calm Calm - N/A Fog Fog
2:53 AM 50.0 °F 48.0 °F 93% 29.83 in 0.2 mi Calm Calm - N/A Fog Fog
3:28 AM 50.0 °F 48.0 °F 93% 29.82 in 0.5 mi North 4.6 mph - N/A Fog Fog
3:53 AM 50.0 °F 48.9 °F 96% 29.82 in 0.5 mi North 4.6 mph - N/A Fog Fog
4:53 AM 52.0 °F 51.1 °F 97% 29.83 in 1.0 mi North 3.5 mph - N/A   Mist
5:07 AM 52.0 °F 51.1 °F 97% 29.83 in 0.8 mi NNE 5.8 mph - N/A   Mist
5:29 AM 53.1 °F 51.1 °F 93% 29.82 in 1.2 mi NE 4.6 mph - N/A   Overcast
5:39 AM 53.1 °F 52.0 °F 96% 29.81 in 1.5 mi Calm Calm - N/A   Overcast
10:53 AM 62.1 °F 51.1 °F 67% 29.83 in 10.0 mi Calm Calm - N/A   Mostly Cloudy
11:09 AM 62.1 °F 52.0 °F 70% 29.83 in 10.0 mi NNE 3.5 mph - N/A   Scattered Clouds
11:53 AM 64.0 °F 51.1 °F 63% 29.78 in 10.0 mi ESE 4.6 mph - N/A   Clear
12:53 PM 66.0 °F 48.9 °F 54% 29.75 in 10.0 mi WSW 9.2 mph - N/A   Clear
1:53 PM 66.9 °F 46.0 °F 47% 29.73 in 10.0 mi West 12.7 mph - N/A   Clear
2:53 PM 64.9 °F 46.0 °F 50% 29.71 in 10.0 mi West 13.8 mph 19.6 mph N/A   Clear
3:53 PM 61.0 °F 46.9 °F 60% 29.71 in 10.0 mi WNW 12.7 mph 20.7 mph N/A   Clear
4:53 PM 57.9 °F 46.9 °F 67% 29.70 in 10.0 mi West 16.1 mph 25.3 mph N/A   Clear
5:53 PM 57.0 °F 46.9 °F 69% 29.69 in 10.0 mi West 10.4 mph - N/A   Partly Cloudy
6:10 PM 57.0 °F 46.9 °F 69% 29.69 in 10.0 mi West 9.2 mph - N/A   Mostly Cloudy
6:21 PM 57.0 °F 46.9 °F 69% 29.68 in 10.0 mi West 9.2 mph - N/A   Scattered Clouds
6:53 PM 57.0 °F 46.9 °F 69% 29.67 in 10.0 mi West 8.1 mph - N/A   Mostly Cloudy
7:53 PM 55.9 °F 48.9 °F 77% 29.64 in 10.0 mi West 8.1 mph - N/A   Overcast
8:53 PM 57.0 °F 46.9 °F 69% 29.62 in 10.0 mi WNW 6.9 mph - N/A   Overcast
9:53 PM 57.9 °F 46.9 °F 67% 29.60 in 10.0 mi West 8.1 mph - N/A   Overcast
10:53 PM 55.9 °F 46.9 °F 72% 29.57 in 10.0 mi Calm Calm - N/A   Overcast
11:22 PM 55.9 °F 46.9 °F 72% 29.56 in 10.0 mi Calm Calm - N/A   Overcast
11:53 PM 54.0 °F 46.9 °F 77% 29.55 in 10.0 mi Calm Calm - N/A   Scattered Clouds